Location: Regona
(45.2000°N, 9.8167°E)
Time: 01:00:18
(UTC+00:00)

Cosmos 2263 Rocket - Visible Passes

Search period start: 14 June 2021 00:00
Search period end: 24 June 2021 00:00
Orbit: 823 x 849 km, 71.0° (Epoch: 13 June)

Date Brightness Start Highest point End Pass type
(mag) Time Alt. Az. Time Alt. Az. Time Alt. Az.
14 Jun 2.4 19:40:20 10° NNW 19:46:00 62° ENE 19:51:38 10° SE visible
14 Jun 4.1 21:25:14 10° NW 21:29:26 21° W 21:33:36 10° SSW visible
15 Jun 4.0 21:08:18 10° NW 21:12:42 23° WSW 21:17:04 10° SSW visible
16 Jun 4.0 20:51:24 10° NW 20:55:58 25° WSW 21:00:30 10° SSW visible
17 Jun 3.9 20:34:30 10° NW 20:39:13 27° WSW 20:43:55 10° SSW visible
18 Jun 3.8 20:17:38 10° NW 20:22:29 30° WSW 20:27:19 10° SSW visible
19 Jun 3.7 20:00:45 10° NW 20:05:44 32° WSW 20:10:42 10° SSW visible
20 Jun 3.7 19:43:53 10° NW 19:48:59 35° WSW 19:54:04 10° S visible
